Time,TemperatureF,DewpointF,PressureIn,WindDirection,WindDirectionDegrees,WindSpeedMPH,WindSpeedGustMPH,Humidity,HourlyPrecipIn,Conditions,Clouds,dailyrainin,SoftwareType,DateUTC
2013-06-11 00:00:00,54.0,50.0,-100.00,North,-999,-999.0,-999.0,86,-99.99,,,-99.99,,2013-06-10 23:00:00,
2013-06-11 00:41:00,54.0,50.0,-100.00,North,-999,-999.0,-999.0,86,-99.99,,,-99.99,,2013-06-10 23:41:00,
2013-06-11 00:52:00,54.0,50.0,-100.00,North,-999,-999.0,-999.0,86,-99.99,,,-99.99,,2013-06-10 23:52:00,
2013-06-11 01:00:00,53.0,50.0,-100.00,North,-999,-999.0,-999.0,89,-99.99,,,-99.99,,2013-06-11 00:00:00,
2013-06-11 01:41:00,53.0,50.0,-100.00,North,-999,-999.0,-999.0,89,-99.99,,,-99.99,,2013-06-11 00:41:00,
2013-06-11 01:51:00,53.0,50.0,-100.00,North,-999,-999.0,-999.0,89,-99.99,,,-99.99,,2013-06-11 00:51:00,
2013-06-11 02:00:00,55.0,50.0,-100.00,North,-999,-999.0,-999.0,81,-99.99,,,-99.99,,2013-06-11 01:00:00,
2013-06-11 02:42:00,55.0,50.0,-100.00,North,-999,-999.0,-999.0,81,-99.99,,,-99.99,,2013-06-11 01:42:00,
2013-06-11 02:52:00,55.0,50.0,-100.00,North,-999,-999.0,-999.0,81,-99.99,,,-99.99,,2013-06-11 01:52:00,
2013-06-11 03:00:00,54.0,49.0,-100.00,North,-999,-999.0,-999.0,81,-99.99,,,-99.99,,2013-06-11 02:00:00,
2013-06-11 03:41:00,54.0,49.0,-100.00,North,-999,-999.0,-999.0,81,-99.99,,,-99.99,,2013-06-11 02:41:00,
2013-06-11 03:51:00,54.0,49.0,-100.00,North,-999,-999.0,-999.0,81,-99.99,,,-99.99,,2013-06-11 02:51:00,
2013-06-11 04:00:00,51.0,49.0,-100.00,North,-999,-999.0,-999.0,92,-99.99,,,-99.99,,2013-06-11 03:00:00,
2013-06-11 04:42:00,51.0,49.0,-100.00,North,-999,-999.0,-999.0,92,-99.99,,,-99.99,,2013-06-11 03:42:00,
2013-06-11 04:53:00,51.0,49.0,-100.00,North,-999,-999.0,-999.0,92,-99.99,,,-99.99,,2013-06-11 03:53:00,
2013-06-11 05:00:00,51.0,50.0,-100.00,North,-999,-999.0,-999.0,95,-99.99,,,-99.99,,2013-06-11 04:00:00,
2013-06-11 05:42:00,51.0,50.0,-100.00,North,-999,-999.0,-999.0,95,-99.99,,,-99.99,,2013-06-11 04:42:00,
2013-06-11 05:52:00,51.0,50.0,-100.00,North,-999,-999.0,-999.0,95,-99.99,,,-99.99,,2013-06-11 04:52:00,
2013-06-11 06:00:00,52.0,51.0,-100.00,North,-999,-999.0,-999.0,96,-99.99,,,-99.99,,2013-06-11 05:00:00,
2013-06-11 06:41:00,52.0,51.0,-100.00,North,-999,-999.0,-999.0,96,-99.99,,,-99.99,,2013-06-11 05:41:00,
2013-06-11 06:52:00,52.0,51.0,-100.00,North,-999,-999.0,-999.0,96,-99.99,,,-99.99,,2013-06-11 05:52:00,
2013-06-11 07:00:00,52.0,51.0,-100.00,North,-999,-999.0,-999.0,97,-99.99,,,-99.99,,2013-06-11 06:00:00,
2013-06-11 07:42:00,52.0,51.0,-100.00,North,-999,-999.0,-999.0,97,-99.99,,,-99.99,,2013-06-11 06:42:00,
2013-06-11 07:52:00,52.0,51.0,-100.00,North,-999,-999.0,-999.0,97,-99.99,,,-99.99,,2013-06-11 06:52:00,
2013-06-11 08:00:00,53.0,52.0,-100.00,North,-999,-999.0,-999.0,98,-99.99,,,-99.99,,2013-06-11 07:00:00,
2013-06-11 08:42:00,53.0,52.0,-100.00,North,-999,-999.0,-999.0,98,-99.99,,,-99.99,,2013-06-11 07:42:00,
2013-06-11 08:52:00,53.0,52.0,-100.00,North,-999,-999.0,-999.0,98,-99.99,,,-99.99,,2013-06-11 07:52:00,
2013-06-11 09:00:00,52.0,52.0,-100.00,North,-999,-999.0,-999.0,98,-99.99,,,-99.99,,2013-06-11 08:00:00,
2013-06-11 09:41:00,52.0,52.0,-100.00,North,-999,-999.0,-999.0,98,-99.99,,,-99.99,,2013-06-11 08:41:00,
2013-06-11 09:51:00,52.0,52.0,-100.00,North,-999,-999.0,-999.0,98,-99.99,,,-99.99,,2013-06-11 08:51:00,
2013-06-11 10:00:00,52.0,52.0,-100.00,North,-999,-999.0,-999.0,99,-99.99,,,-99.99,,2013-06-11 09:00:00,
2013-06-11 10:42:00,52.0,52.0,-100.00,North,-999,-999.0,-999.0,99,-99.99,,,-99.99,,2013-06-11 09:42:00,
2013-06-11 10:53:00,52.0,52.0,-100.00,North,-999,-999.0,-999.0,99,-99.99,,,-99.99,,2013-06-11 09:53:00,
2013-06-11 11:00:00,54.0,54.0,-100.00,North,-999,-999.0,-999.0,98,-99.99,,,-99.99,,2013-06-11 10:00:00,
2013-06-11 11:42:00,54.0,54.0,-100.00,North,-999,-999.0,-999.0,98,-99.99,,,-99.99,,2013-06-11 10:42:00,
2013-06-11 11:52:00,54.0,54.0,-100.00,North,-999,-999.0,-999.0,98,-99.99,,,-99.99,,2013-06-11 10:52:00,
2013-06-11 12:00:00,58.0,54.0,-100.00,North,-999,-999.0,-999.0,87,-99.99,,,-99.99,,2013-06-11 11:00:00,
2013-06-11 12:41:00,58.0,54.0,-100.00,North,-999,-999.0,-999.0,87,-99.99,,,-99.99,,2013-06-11 11:41:00,
2013-06-11 12:51:00,58.0,54.0,-100.00,North,-999,-999.0,-999.0,87,-99.99,,,-99.99,,2013-06-11 11:51:00,
2013-06-11 13:00:00,58.0,55.0,-100.00,North,-999,-999.0,-999.0,90,-99.99,,,-99.99,,2013-06-11 12:00:00,
2013-06-11 13:42:00,58.0,55.0,-100.00,North,-999,-999.0,-999.0,90,-99.99,,,-99.99,,2013-06-11 12:42:00,
2013-06-11 13:51:00,58.0,55.0,-100.00,North,-999,-999.0,-999.0,90,-99.99,,,-99.99,,2013-06-11 12:51:00,
2013-06-11 14:00:00,58.0,55.0,-100.00,North,-999,-999.0,-999.0,88,-99.99,,,-99.99,,2013-06-11 13:00:00,
2013-06-11 14:42:00,58.0,55.0,-100.00,North,-999,-999.0,-999.0,88,-99.99,,,-99.99,,2013-06-11 13:42:00,
2013-06-11 14:52:00,58.0,55.0,-100.00,North,-999,-999.0,-999.0,88,-99.99,,,-99.99,,2013-06-11 13:52:00,
2013-06-11 15:00:00,54.0,53.0,-100.00,North,-999,-999.0,-999.0,96,-99.99,,,-99.99,,2013-06-11 14:00:00,
2013-06-11 15:41:00,54.0,53.0,-100.00,North,-999,-999.0,-999.0,96,-99.99,,,-99.99,,2013-06-11 14:41:00,
2013-06-11 15:51:00,54.0,53.0,-100.00,North,-999,-999.0,-999.0,96,-99.99,,,-99.99,,2013-06-11 14:51:00,
2013-06-11 16:00:00,53.0,53.0,-100.00,North,-999,-999.0,-999.0,98,-99.99,,,-99.99,,2013-06-11 15:00:00,
2013-06-11 16:42:00,53.0,53.0,-100.00,North,-999,-999.0,-999.0,98,-99.99,,,-99.99,,2013-06-11 15:42:00,
2013-06-11 16:52:00,53.0,53.0,-100.00,North,-999,-999.0,-999.0,98,-99.99,,,-99.99,,2013-06-11 15:52:00,
2013-06-11 17:00:00,60.0,59.0,-100.00,North,-999,-999.0,-999.0,99,-99.99,,,-99.99,,2013-06-11 16:00:00,
2013-06-11 17:42:00,60.0,59.0,-100.00,North,-999,-999.0,-999.0,99,-99.99,,,-99.99,,2013-06-11 16:42:00,
2013-06-11 17:52:00,60.0,59.0,-100.00,North,-999,-999.0,-999.0,99,-99.99,,,-99.99,,2013-06-11 16:52:00,
2013-06-11 18:00:00,64.0,58.0,-100.00,North,-999,-999.0,-999.0,82,-99.99,,,-99.99,,2013-06-11 17:00:00,
2013-06-11 18:42:00,64.0,58.0,-100.00,North,-999,-999.0,-999.0,82,-99.99,,,-99.99,,2013-06-11 17:42:00,
2013-06-11 18:52:00,64.0,58.0,-100.00,North,-999,-999.0,-999.0,82,-99.99,,,-99.99,,2013-06-11 17:52:00,
2013-06-11 19:00:00,61.0,55.0,-100.00,North,-999,-999.0,-999.0,79,-99.99,,,-99.99,,2013-06-11 18:00:00,
2013-06-11 19:42:00,61.0,55.0,-100.00,North,-999,-999.0,-999.0,79,-99.99,,,-99.99,,2013-06-11 18:42:00,
2013-06-11 19:52:00,61.0,55.0,-100.00,North,-999,-999.0,-999.0,79,-99.99,,,-99.99,,2013-06-11 18:52:00,
2013-06-11 20:00:00,60.0,56.0,-100.00,North,-999,-999.0,-999.0,87,-99.99,,,-99.99,,2013-06-11 19:00:00,
2013-06-11 20:41:00,60.0,56.0,-100.00,North,-999,-999.0,-999.0,87,-99.99,,,-99.99,,2013-06-11 19:41:00,
2013-06-11 20:52:00,60.0,56.0,-100.00,North,-999,-999.0,-999.0,87,-99.99,,,-99.99,,2013-06-11 19:52:00,
2013-06-11 21:00:00,58.0,52.0,-100.00,North,-999,-999.0,-999.0,79,-99.99,,,-99.99,,2013-06-11 20:00:00,
2013-06-11 21:41:00,58.0,52.0,-100.00,North,-999,-999.0,-999.0,79,-99.99,,,-99.99,,2013-06-11 20:41:00,
2013-06-11 21:52:00,58.0,52.0,-100.00,North,-999,-999.0,-999.0,79,-99.99,,,-99.99,,2013-06-11 20:52:00,
2013-06-11 22:00:00,55.0,52.0,-100.00,North,-999,-999.0,-999.0,88,-99.99,,,-99.99,,2013-06-11 21:00:00,
2013-06-11 22:42:00,55.0,52.0,-100.00,North,-999,-999.0,-999.0,88,-99.99,,,-99.99,,2013-06-11 21:42:00,
2013-06-11 22:52:00,55.0,52.0,-100.00,North,-999,-999.0,-999.0,88,-99.99,,,-99.99,,2013-06-11 21:52:00,
2013-06-11 23:00:00,51.0,51.0,-100.00,North,-999,-999.0,-999.0,98,-99.99,,,-99.99,,2013-06-11 22:00:00,
2013-06-11 23:42:00,51.0,51.0,-100.00,North,-999,-999.0,-999.0,98,-99.99,,,-99.99,,2013-06-11 22:42:00,
2013-06-11 23:52:00,51.0,51.0,-100.00,North,-999,-999.0,-999.0,98,-99.99,,,-99.99,,2013-06-11 22:52:00,